Flag for Italy Weather past 2 weeks in Modena, Italy

Now
64 °F

Passing clouds.


Feels Like: 64 °F
Forecast: 54 / 77 °F
Wind: 6 mph from East

Location: Bologna / Borgo Panigale

Current Time: May 3, 2015 at 11:07:35 PM

Latest Report: May 3, 2015 at 10:20 PM


Visibility: N/A

Pressure: 29.95 "Hg

Humidity: 83%

Dew point: 59 °F

Location of ModenaLocation

Historic Weather in Modena — Graph

°F

Modena temperature yesterday

Maximum temperature yesterday: 75 °F (at 4:20 PM)
Minimum temperature yesterday: 54 °F (at 4:50 AM)
Average temperature yesterday: 64 °F

Past Weeks' High & Low Weather Summary

 TemperatureHumidityPressure
High79 °F (Apr 22, 3:50 PM)100% (Apr 25, 5:20 AM)30.24 "Hg (Apr 25, 5:20 AM)
Low39 °F (Apr 20, 4:20 AM)27% (Apr 23, 2:50 PM)29.59 "Hg (Apr 27, 6:50 PM)
Average60 °F68%29.96 "Hg
* Reported Apr 18 9:20 PM — May 3 9:50 PM, Modena, Weather by CustomWeather, © 2015

Note: Actual official high and low records may vary slightly from our data, if they occured in-between our weather recording intervals... More about our weather records

Advertising

Modena weather history for previous 24 hours

 ConditionsComfort  
Time TempWeatherWind HumidityBarometerVisibility
9:50 PM
Sun, May 3
66 °FPassing clouds.7 mph83%29.95 "HgN/A
9:20 PM66 °FScattered clouds.7 mph83%29.92 "HgN/A
8:50 PM68 °FPartly sunny.5 mph78%29.92 "HgN/A
8:20 PM70 °FScattered clouds.3 mph73%29.92 "HgN/A
7:50 PM70 °FScattered clouds.5 mph73%29.92 "HgN/A
7:20 PM70 °FScattered clouds.6 mph73%29.89 "HgN/A
6:50 PM72 °FScattered clouds.7 mph69%29.89 "HgN/A
6:20 PM72 °FScattered clouds.6 mph69%29.89 "HgN/A
5:50 PM72 °FScattered clouds.6 mph73%29.89 "HgN/A
5:20 PM72 °FScattered clouds.7 mph69%29.89 "HgN/A
4:50 PM72 °FScattered clouds.7 mph69%29.89 "HgN/A
4:20 PM72 °FPassing clouds.5 mph69%29.89 "HgN/A
3:50 PM72 °FPassing clouds.6 mph73%29.92 "HgN/A
3:20 PM72 °FPassing clouds.6 mph69%29.92 "HgN/A
2:50 PM72 °FPassing clouds.5 mph73%29.92 "HgN/A
2:20 PM70 °FPassing clouds.6 mph69%29.92 "HgN/A
1:50 PM72 °FPassing clouds.2 mph69%29.92 "HgN/A
1:20 PM70 °FScattered clouds.2 mph73%29.92 "HgN/A
12:50 PM68 °FScattered clouds.3 mph78%29.92 "HgN/A
12:20 PM68 °FScattered clouds.3 mph78%29.92 "Hg5 mi
11:50 AM68 °FScattered clouds.2 mph78%29.92 "Hg5 mi
11:20 AM66 °FScattered clouds.3 mph78%29.92 "Hg5 mi
10:50 AM66 °FPassing clouds.2 mph78%29.92 "Hg5 mi
10:20 AM64 °FPassing clouds.3 mph83%29.92 "Hg5 mi
9:50 AM63 °FPassing clouds.3 mph88%29.92 "Hg5 mi
9:20 AM63 °FPassing clouds.3 mph88%29.92 "Hg5 mi
8:50 AM61 °FClear.3 mph88%29.92 "Hg5 mi
8:20 AM61 °FClear.5 mph88%29.89 "Hg5 mi
7:50 AM59 °FSunny.3 mph88%29.89 "Hg10 mi
7:20 AM57 °FSunny.5 mph94%29.89 "Hg10 mi
6:50 AM57 °FClear.2 mph88%29.86 "Hg10 mi
6:20 AM57 °FPassing clouds.2 mph88%29.86 "HgN/A
5:50 AM57 °FPassing clouds.3 mph88%29.86 "HgN/A
5:20 AM59 °FPassing clouds.5 mph88%29.86 "HgN/A
4:20 AM57 °FClear.5 mph88%29.86 "Hg10 mi
3:20 AM59 °FClear.1 mph88%29.86 "Hg10 mi
2:50 AM59 °FClear.2 mph88%29.86 "Hg10 mi
2:20 AM59 °FClear.3 mph88%29.86 "Hg10 mi
1:50 AM61 °FClear.No wind83%29.86 "Hg10 mi
1:20 AM61 °FClear.2 mph83%29.86 "Hg10 mi
12:50 AM61 °FPassing clouds.5 mph88%29.86 "HgN/A
12:20 AM61 °FPassing clouds.3 mph83%29.86 "HgN/A
11:50 PM
Sat, May 2
61 °FClear.3 mph83%29.86 "Hg10 mi
11:20 PM64 °FClear.1 mph68%29.86 "Hg10 mi
Weather by CustomWeather, © 2015

See weather overviewHow to use our weather pages